This is the latest recevied weather packets stored in our database for station/object IZ1UQG-1. If no packets are shown the sender has not sent any weather packets the latest 10 day(s).
| Time | Temp. | Humidity | Pressure | Rain* | Wind** | Luminosity | Snow |
|---|---|---|---|---|---|---|---|
| 1778152431 | 25.56° C | 48% | 1011.4 hPa | 70.87 mm | - | - | - |
| 1778152131 | 25.56° C | 49% | 1011.5 hPa | 70.87 mm | - | - | - |
| 1778151831 | 25.56° C | 50% | 1011.4 hPa | 75.95 mm | - | - | - |
| 1778151531 | 25° C | 54% | 1011.6 hPa | 67.31 mm | - | - | - |
| 1778151231 | 25° C | 56% | 1011.5 hPa | 79.76 mm | - | - | - |
| 1778150931 | 25° C | 57% | 1011.4 hPa | 80.26 mm | - | - | - |
| 1778150631 | 24.44° C | 59% | 1011.6 hPa | 87.38 mm | - | - | - |
| 1778150331 | 23.89° C | 57% | 1011.4 hPa | 95.76 mm | - | - | - |
| 1778150031 | 23.89° C | 57% | 1011.7 hPa | 90.93 mm | - | - | - |
| 1778149731 | 23.89° C | 57% | 1011.7 hPa | 83.82 mm | - | - | - |
| 1778149431 | 23.89° C | 54% | 1011.7 hPa | 94.23 mm | - | - | - |
| 1778149131 | 23.33° C | 53% | 1011.8 hPa | 98.3 mm | - | - | - |
| 1778148831 | 23.89° C | 53% | 1012.2 hPa | 86.87 mm | - | - | - |
| 1778148531 | 23.33° C | 53% | 1012.1 hPa | 80.26 mm | - | - | - |
| 1778148231 | 23.33° C | 53% | 1012.1 hPa | 79.76 mm | - | - | - |
| 1778147931 | 23.33° C | 54% | 1012.2 hPa | 110.24 mm | - | - | - |
| 1778147631 | 22.78° C | 57% | 1012.2 hPa | 118.62 mm | - | - | - |
| 1778147331 | 22.78° C | 58% | 1012.3 hPa | 112.78 mm | - | - | - |
| 1778147031 | 22.22° C | 60% | 1012.3 hPa | 106.68 mm | - | - | - |
| 1778146731 | 22.22° C | 60% | 1012.5 hPa | 102.87 mm | - | - | - |
| 1778146431 | 21.67° C | 62% | 1012.5 hPa | 120.14 mm | - | - | - |
| 1778146131 | 21.67° C | 63% | 1012.6 hPa | 118.62 mm | - | - | - |
| 1778145831 | 21.11° C | 65% | 1012.5 hPa | 112.78 mm | - | - | - |
| 1778145531 | 20.56° C | 63% | 1012.7 hPa | 100.84 mm | - | - | - |
| 1778145231 | 20° C | 65% | 1012.5 hPa | 126.24 mm | - | - | - |
* Rain latest hour (hover to see other rain measurements)
** Current wind speed in m/s (hover to see current wind gust speed)